This is the latest recevied weather packets stored in our database for station/object KG7FOQ-13. If no packets are shown the sender has not sent any weather packets the latest 10 day(s).
| Time | Temp. | Humidity | Pressure | Rain* | Wind** | Luminosity | Snow |
|---|---|---|---|---|---|---|---|
| 1777695749 | 9.44° C | 43% | 1018.7 hPa | 0 mm | - | - | - |
| 1777695448 | 10° C | 43% | 1018.7 hPa | 0 mm | - | - | - |
| 1777695148 | 10.56° C | 40% | 1018.6 hPa | 0 mm | - | - | - |
| 1777694847 | 10.56° C | 40% | 1018.6 hPa | 0 mm | - | - | - |
| 1777694547 | 10.56° C | 37% | 1018.6 hPa | 0 mm | - | - | - |
| 1777694246 | 11.11° C | 37% | 1018.6 hPa | 0 mm | - | - | - |
| 1777693987 | 11.11° C | 36% | 1018.6 hPa | 0 mm | - | - | - |
| 1777693945 | 11.11° C | 36% | 1018.6 hPa | 0 mm | - | - | - |
| 1777693644 | 11.11° C | 37% | 1018.5 hPa | 0 mm | - | - | - |
| 1777693344 | 11.11° C | 37% | 1018.5 hPa | 0 mm | - | - | - |
| 1777693043 | 11.11° C | 38% | 1018.4 hPa | 0 mm | - | - | - |
| 1777692742 | 11.67° C | 40% | 1018.4 hPa | 0 mm | - | - | - |
| 1777692442 | 11.67° C | 43% | 1018.2 hPa | 0 mm | - | - | - |
| 1777692142 | 12.22° C | 40% | 1018.2 hPa | 0 mm | - | - | - |
| 1777691540 | 12.78° C | 37% | 1018 hPa | 0 mm | - | - | - |
| 1777691240 | 12.78° C | 39% | 1018 hPa | 0 mm | - | - | - |
| 1777690939 | 13.33° C | 36% | 1017.9 hPa | 0 mm | - | - | - |
| 1777690647 | 14.44° C | 37% | 1017.9 hPa | 0 mm | - | - | - |
| 1777690338 | 16.11° C | 28% | 1017.8 hPa | 0 mm | - | - | - |
| 1777690038 | 16.11° C | 26% | 1017.8 hPa | 0 mm | - | - | - |
| 1777689735 | 16.67° C | 25% | 1017.8 hPa | 0 mm | - | - | - |
| 1777689435 | 17.22° C | 27% | 1017.8 hPa | 0 mm | - | - | - |
| 1777689134 | 17.78° C | 23% | 1017.8 hPa | 0 mm | - | - | - |
| 1777688834 | 18.33° C | 19% | 1017.8 hPa | 0 mm | - | - | - |
| 1777688534 | 18.33° C | 18% | 1017.8 hPa | 0 mm | - | - | - |
* Rain latest hour (hover to see other rain measurements)
** Current wind speed in m/s (hover to see current wind gust speed)